TimeCST,TemperatureF,Dew PointF,Humidity,Sea Level PressureIn,VisibilityMPH,Wind Direction,Wind SpeedMPH,Gust SpeedMPH,PrecipitationIn,Events,Conditions,WindDirDegrees,DateUTC
12:53 AM,33.1,24.1,70,30.38,10.0,SSW,6.9,-,N/A,,Clear,200,2012-11-15 06:53:00
1:53 AM,32.0,24.1,73,30.38,10.0,SSW,4.6,-,N/A,,Clear,200,2012-11-15 07:53:00
2:53 AM,30.9,24.1,76,30.38,9.0,Calm,Calm,-,N/A,,Clear,0,2012-11-15 08:53:00
3:53 AM,30.0,24.1,79,30.37,8.0,Calm,Calm,-,N/A,,Clear,0,2012-11-15 09:53:00
4:53 AM,30.0,24.1,79,30.38,8.0,Calm,Calm,-,N/A,,Clear,0,2012-11-15 10:53:00
5:53 AM,30.0,24.1,79,30.38,7.0,Calm,Calm,-,N/A,,Clear,0,2012-11-15 11:53:00
6:53 AM,28.9,24.1,82,30.37,5.0,South,4.6,-,N/A,,Haze,190,2012-11-15 12:53:00
7:53 AM,32.0,27.0,82,30.39,5.0,SSW,5.8,-,N/A,,Haze,200,2012-11-15 13:53:00
8:53 AM,35.1,28.0,76,30.39,5.0,SSW,8.1,-,N/A,,Haze,210,2012-11-15 14:53:00
9:53 AM,39.0,28.9,67,30.39,6.0,SW,9.2,-,N/A,,Haze,230,2012-11-15 15:53:00
10:53 AM,43.0,28.9,58,30.38,8.0,SW,8.1,-,N/A,,Clear,220,2012-11-15 16:53:00
11:53 AM,46.0,28.0,50,30.35,10.0,SW,8.1,-,N/A,,Clear,220,2012-11-15 17:53:00
12:53 PM,48.9,28.0,44,30.33,10.0,SW,5.8,-,N/A,,Clear,220,2012-11-15 18:53:00
1:53 PM,50.0,27.0,41,30.32,9.0,SSW,5.8,-,N/A,,Clear,210,2012-11-15 19:53:00
2:53 PM,50.0,27.0,41,30.31,10.0,SSW,9.2,-,N/A,,Clear,210,2012-11-15 20:53:00
3:53 PM,48.0,27.0,44,30.33,10.0,SSW,5.8,-,N/A,,Clear,210,2012-11-15 21:53:00
4:53 PM,45.0,27.0,49,30.34,10.0,SSW,3.5,-,N/A,,Clear,210,2012-11-15 22:53:00
5:53 PM,41.0,27.0,57,30.35,10.0,South,3.5,-,N/A,,Mostly Cloudy,190,2012-11-15 23:53:00
6:53 PM,41.0,26.1,55,30.36,10.0,SSW,5.8,-,N/A,,Partly Cloudy,200,2012-11-16 00:53:00
7:53 PM,35.1,26.1,70,30.37,8.0,WSW,5.8,-,N/A,,Clear,250,2012-11-16 01:53:00
8:53 PM,37.9,26.1,62,30.37,8.0,SW,5.8,-,N/A,,Clear,220,2012-11-16 02:53:00
9:53 PM,37.9,27.0,65,30.38,8.0,SW,3.5,-,N/A,,Clear,220,2012-11-16 03:53:00
10:53 PM,37.0,27.0,67,30.37,8.0,SW,4.6,-,N/A,,Clear,220,2012-11-16 04:53:00
11:53 PM,35.1,26.1,70,30.37,7.0,SW,5.8,-,N/A,,Clear,230,2012-11-16 05:53:00